This is the latest recevied weather packets stored in our database for station/object AD4CG. If no packets are shown the sender has not sent any weather packets the latest 10 day(s).
| Time | Temp. | Humidity | Pressure | Rain* | Wind** | Luminosity | Snow |
|---|---|---|---|---|---|---|---|
| 1777715132 | 12.22° C | 100% | 1012.9 hPa | 0 mm | - | - | - |
| 1777713256 | 12.22° C | 100% | 1012.9 hPa | 0 mm | - | - | - |
| 1777706684 | 12.22° C | 100% | 1011.9 hPa | 0 mm | - | - | - |
| 1777705748 | 11.67° C | 100% | 1011.9 hPa | 0 mm | - | - | - |
| 1777704186 | 12.22° C | 100% | 1011.9 hPa | 0 mm | - | - | - |
| 1777700123 | 11.67° C | 100% | 1012.9 hPa | 0 mm | - | - | - |
| 1777699811 | 11.67° C | 100% | 1013.2 hPa | 0 mm | - | - | - |
| 1777699186 | 11.67° C | 100% | 1012.9 hPa | 0 mm | - | - | - |
| 1777698248 | 11.67° C | 100% | 1013.2 hPa | 0 mm | - | - | - |
| 1777697624 | 11.67° C | 100% | 1013.2 hPa | 0 mm | - | - | - |
| 1777697312 | 11.67° C | 100% | 1013.2 hPa | 0 mm | - | - | - |
| 1777695744 | 11.11° C | 100% | 1013.2 hPa | 0 mm | - | - | - |
| 1777693236 | 11.11° C | 100% | 1013.5 hPa | 0 mm | - | - | - |
| 1777692612 | 11.11° C | 100% | 1013.5 hPa | 0 mm | - | - | - |
| 1777691987 | 11.11° C | 100% | 1013.5 hPa | 0 mm | - | - | - |
| 1777688855 | 11.11° C | 100% | 1013.9 hPa | 0 mm | - | - | - |
| 1777687913 | 11.11° C | 100% | 1013.9 hPa | 0 mm | - | - | - |
| 1777685715 | 11.67° C | 100% | 1013.9 hPa | 0 mm | - | - | - |
| 1777682893 | 11.67° C | 100% | 1013.5 hPa | 0 mm | - | - | - |
| 1777682579 | 12.22° C | 100% | 1013.5 hPa | 0 mm | - | - | - |
| 1777682267 | 12.22° C | 100% | 1013.5 hPa | 0 mm | - | - | - |
| 1777681017 | 12.22° C | 100% | 1012.9 hPa | 0 mm | - | - | - |
| 1777679129 | 12.78° C | 100% | 1013.5 hPa | 0 mm | - | - | - |
| 1777677255 | 12.78° C | 100% | 1013.5 hPa | 0 mm | - | - | - |
| 1777673822 | 12.78° C | 100% | 1013.5 hPa | 0 mm | - | - | - |
* Rain latest hour (hover to see other rain measurements)
** Current wind speed in m/s (hover to see current wind gust speed)